Regional Weather Roundup
Issued by NWS Kansas City/Pleasant Hill, MO

Home | Current Version | Previous Version | Text Only | Print | Product List | Glossary On
Versions: 1 2 3 4 5 6 7 8 9 10 11 12 13 14 15 16 17 18 19 20 21 22 23 24 25 26 27
000
ASUS43 KEAX 260110
RWREAX

WEATHER ROUNDUP FOR EASTERN KANSAS AND NORTHWEST MISSOURI
NATIONAL WEATHER SERVICE KANSAS CITY/PLEASANT HILL MO
800 PM CDT MON JUL 25 2016

KSZ040-057-103>105-MOZ028-029-037-043-260200-
...KANSAS CITY METROPOLITAN AREA...

CITY           SKY/WX    TMP DP  RH WIND       PRES   REMARKS
K.C. INTL      MOCLDY    82  65  56 E8        30.04R
K.C. DOWNTOWN  CLOUDY    82  64  54 NE8       30.02R
LEES SUMMIT    CLOUDY    81  70  69 E5        30.04R
OLATHE - IXD   PTCLDY    81  68  64 E5        30.04R
OLATHE - OJC   CLOUDY    79  67  66 E6        30.04R
LAWRENCE       CLOUDY    80  71  74 N5        30.03R

$$

MOZ001>008-011>017-020>025-030>033-038>040-044>046-053-054-260200-
...NORTHERN AND CENTRAL MISSOURI...

CITY           SKY/WX    TMP DP  RH WIND       PRES   REMARKS
ST. JOSEPH     PTCLDY    83  67  58 E6        30.03R
MOSBY          MOCLDY    81  68  65 CALM      30.03R
WHITEMAN AFB   MOCLDY    79  76  89 E3        30.02S
CLINTON        PTCLDY    79  73  83 CALM      30.02F
SEDALIA        PTCLDY    80  72  76 CALM      30.04R
WARSAW         NOT AVBL
CHILLICOTHE      N/A     84  71  65 CALM      30.04R
KIRKSVILLE     CLOUDY    80  68  66 E3        30.05R

$$

MOZ041-047>049-056>058-063>065-088>090-097-260200-
...EASTERN AND SOUTHERN MISSOURI...

CITY           SKY/WX    TMP DP  RH WIND       PRES   REMARKS
ST. LOUIS INTL MOCLDY    83  73  72 NE9       29.99R
SPIRIT OF STL  CLOUDY    83  74  74 N5        29.98R
COLUMBIA       CLEAR     77  73  87 N5        30.03R
JEFFERSON CITY CLOUDY    81  69  67 NE5       30.01R
ROLLA          CLOUDY    79  72  79 N6        30.02R
OSAGE BEACH    PTCLDY    78  74  87 CALM      30.03R
SPRINGFIELD    PTCLDY    80  72  76 NE7       30.03R
BRANSON        PTCLDY    81  73  78 CALM      30.03R
JOPLIN         CLOUDY    79  74  84 N7        30.01R
WEST PLAINS    MOCLDY    81  69  67 N6        30.03R

$$

IAZ060-094-KSZ022-034>040-054-083-096-NEZ052-066-093-260200-
...KANSAS...SOUTHEAST NEBRASKA AND IOWA...

CITY           SKY/WX    TMP DP  RH WIND       PRES   REMARKS
TOPEKA         PTCLDY    82  69  64 NE6       30.03R
MANHATTAN      CLEAR     82  69  64 E7        30.03R
EMPORIA        CLOUDY    77  71  82 NE7       30.04R
CHANUTE        PTCLDY    80  73  79 NE9       30.01S
WICHITA        MOCLDY    82  69  64 NE15      30.02R
OMAHA          PTCLDY    84  67  56 E6        30.04R
LINCOLN        CLEAR     84  64  50 E9        30.06R
FALLS CITY     CLEAR     82  71  69 NE3       30.04R
LAMONI         CLOUDY    80  66  62 VRB5      30.05R
DES MOINES     PTCLDY    84  62  47 NE7       30.03S

$$





USA.gov is the U.S. government's official web portal to all federal, state and local government web resources and services.